This is the latest recevied weather packets stored in our database for station/object VK4TW-13. If no packets are shown the sender has not sent any weather packets the latest 10 day(s).
| Time | Temp. | Humidity | Pressure | Rain* | Wind** | Luminosity | Snow |
|---|---|---|---|---|---|---|---|
| 1778023026 | 25° C | 100% | 1015.7 hPa | 0 mm | - | - | - |
| 1778022848 | 25° C | 100% | 1015.7 hPa | 0 mm | - | - | - |
| 1778022308 | 24.44° C | 100% | 1015.9 hPa | 0 mm | - | - | - |
| 1778021709 | 24.44° C | 100% | 1015.8 hPa | 0 mm | - | - | - |
| 1778021493 | 24.44° C | 100% | 1015.8 hPa | 0 mm | - | - | - |
| 1778021264 | 24.44° C | 100% | 1015.8 hPa | 0 mm | - | - | - |
| 1778020664 | 23.89° C | 100% | 1015.9 hPa | 0 mm | - | - | - |
| 1778020064 | 23.89° C | 100% | 1015.8 hPa | 0 mm | - | - | - |
| 1778019869 | 23.89° C | 100% | 1015.8 hPa | 0 mm | - | - | - |
| 1778019453 | 23.89° C | 100% | 1015.8 hPa | 0 mm | - | - | - |
| 1778018852 | 23.89° C | 100% | 1015.7 hPa | 0 mm | - | - | - |
| 1778018255 | 23.33° C | 100% | 1015.6 hPa | 0 mm | - | - | - |
| 1778017651 | 22.78° C | 100% | 1015.6 hPa | 0 mm | - | - | - |
| 1778017049 | 22.22° C | 100% | 1015.5 hPa | 0 mm | - | - | - |
| 1778016449 | 22.22° C | 100% | 1015.4 hPa | 0 mm | - | - | - |
| 1778015247 | 21.67° C | 100% | 1015.4 hPa | 0 mm | - | - | - |
| 1778014648 | 21.11° C | 100% | 1015.2 hPa | 0 mm | - | - | - |
| 1778014046 | 21.11° C | 100% | 1015.2 hPa | 0 mm | - | - | - |
| 1778013446 | 21.11° C | 100% | 1015 hPa | 0 mm | - | - | - |
| 1778012846 | 21.11° C | 100% | 1014.9 hPa | 0 mm | - | - | - |
| 1778012241 | 21.11° C | 100% | 1014.7 hPa | 0 mm | - | - | - |
| 1778011641 | 21.67° C | 100% | 1014.7 hPa | 0 mm | - | - | - |
| 1778011042 | 21.67° C | 100% | 1014.6 hPa | 0 mm | - | - | - |
| 1778010441 | 21.67° C | 100% | 1014.6 hPa | 0 mm | - | - | - |
| 1778009237 | 21.11° C | 100% | 1014.4 hPa | 0 mm | - | - | - |
* Rain since midnight (hover to see other rain measurements)
** Current wind speed in m/s (hover to see current wind gust speed)